Home > Weather > Miskolc > Past weeks

Flag for Hungary Past Weather in Miskolc, Hungary — Yesterday and Last 2 Weeks

Now
77 °F

Partly sunny.


Feels Like: 78 °F
Forecast: 64 / 88 °F
Wind: 1 mph from Northeast

Location: Miskolc

Current Time: Jul 26, 2016 at 10:34:59 AM

Latest Report: Jul 26, 2016 at 9:00 AM


Visibility: 16 mi

Pressure: 29.98 "Hg

Humidity: 64%

Dew Point: 64 °F

Location of MiskolcLocation

Past Weather in Miskolc — Graph

°F

Miskolc Temperature Yesterday

Maximum temperature yesterday: 88 °F (at 2:00 PM)
Minimum temperature yesterday: 68 °F (at 3:00 AM)
Average temperature yesterday: 75 °F

High & Low Weather Summary for the Past Weeks

 TemperatureHumidityPressure
High93 °F (Jul 12, 5:00 PM)94% (Jul 14, 2:00 AM)30.09 "Hg (Jul 14, 2:00 AM)
Low57 °F (Jul 15, 6:00 AM)30% (Jul 11, 5:00 PM)29.67 "Hg (Jul 14, 7:00 AM)
Average72 °F67%29.96 "Hg
* Reported Jul 11 9:00 AM — Jul 26 9:00 AM, Miskolc, Weather by CustomWeather, © 2016

Note: Actual official high and low records may vary slightly from our data, if they occured in-between our weather recording intervals... More about our weather records

Advertising

Miskolc Weather History for the Previous 24 Hours

Scroll right to see more
 ConditionsComfort  
Time TempWeatherWind HumidityBarometerVisibility
9:00 AM
Tue, Jul 26
77 °FPartly sunny.1 mph64%29.98 "Hg16 mi
8:00 AM74 °FScattered clouds.No wind69%29.98 "Hg16 mi
7:00 AM69 °FPartly sunny.No wind77%29.98 "Hg16 mi
6:00 AM67 °FPartly sunny.No wind81%29.98 "Hg16 mi
5:00 AM66 °FOvercast.1 mph81%29.98 "Hg12 mi
4:00 AM67 °FPassing clouds.1 mph81%29.98 "Hg12 mi
3:00 AM67 °FMild.1 mph80%29.98 "HgN/A
2:00 AM67 °FPassing clouds.No wind80%29.98 "Hg16 mi
1:00 AM68 °FMild.1 mph80%29.99 "HgN/A
12:00 AM68 °FPassing clouds.1 mph78%29.99 "Hg16 mi
11:00 PM
Mon, Jul 25
69 °FPassing clouds.2 mph78%29.99 "Hg16 mi
10:00 PM70 °FPassing clouds.1 mph78%29.98 "Hg16 mi
9:00 PM72 °FPassing clouds.1 mph74%29.97 "Hg16 mi
8:00 PM75 °FPartly sunny.2 mph69%29.97 "Hg16 mi
6:00 PM75 °FOvercast.2 mph69%29.97 "Hg16 mi
5:00 PM76 °FOvercast.2 mph69%29.98 "Hg16 mi
4:00 PM78 °FThunderstorms. Overcast.3 mph55%29.98 "Hg9 mi
3:00 PM87 °FThunderstorms. Overcast.1 mph41%29.96 "Hg9 mi
2:00 PM88 °FOvercast.2 mph40%29.95 "Hg16 mi
1:00 PM87 °FPartly sunny.2 mph46%29.97 "Hg16 mi
12:00 PM84 °FOvercast.2 mph50%29.98 "Hg16 mi
11:00 AM83 °FOvercast.1 mph47%29.98 "Hg16 mi
10:00 AM81 °FOvercast.1 mph50%29.99 "Hg16 mi
Weather by CustomWeather, © 2016

See weather overviewHow to use our weather pages